STARLINK-35249, 65901

Orbit data source: Space-Track

STARLINK-35249, 65901 is a payload satellite owned by SpaceX/Seattle (US) in LEO that was launched on Tue, 07 Oct 2025 UTC via an FALCON 9 launch vehicle from the Air Force Eastern Test Range (AFETR). Payload-class satellites include a variety of spacecraft equipped with specific instruments for various scientific and technological missions. These include communications satellites like Starlink; space stations such as the ISS; scientific satellites like the Hubble; Earth observation satellites from companies like Planet Labs, Umbra, and HawkEye 360; GPS; miniature CubeSats for education and research; and military/defense satellites.

Loading next visibility...
Identifier
65901, 2025-224V
Orbit
LEO
Country
Flag of USUS
Related business
Manufacturer
SpaceX/Seattle
Mission
Operational spacecraft
Bus & Motor
STARLINK V2MO, Unknown motor
Mass
575 kg wet, ~530 kg dry
Launch date (UTC)
2025-10-07 (2 months ago)
Launch vehicle
FALCON 9
Launch site
Air Force Eastern Test Range (AFETR)
Object type
Payload
Rocket body
Debris
Shape & HBR
Unknown shape, 17.7 m
Radar Cross Section
RCS unknown

Expand to show TLE details & history
Last TLE update: 16 hours ago

TLE from 16 hours ago
0 STARLINK-35249
1 65901U 25224V   25340.55958476  .00054902  00000-0  18493-2 0  9996
2 65901  53.1628  84.0631 0001472  79.2065 280.9102 15.30248968 10596
Epoch: 2025-12-06T13:25Z
TLE epoch observation values (Epoch: 2025-12-06T13:25:48.123Z)
Latitude
0.00003°
Longitude
167.02703°
Altitude
475.778 km
Speed
7.629 km/s
True Right ascension
05h 36m 15s
True Declination
0° 00' 00"
Sunlit
Object was in full shadow at epoch
Visualization orbit readout
Latitude
Unknown
Longitude
Unknown
Altitude
Unknown
Speed
Unknown
Apparent Right ascension
Unknown
Apparent Declination
Unknown
Sunlit
N/A
Visualization observer readout
Local Sidereal Time
03:11:02
Azimuth
Unknown
Elevation
Unknown
Doppler factor
Unknown
Orbital elements
Apogee altitude
476.334 km
Perigee altitude
474.316 km
Semi-major axis
6,853.462 km
Eccentricity
0.00015
Inclination
53.1628°
RAAN
84.0631°
Arg. of periapsis
79.2065°
True anomaly
280.89364°
Mean anomaly
280.9102°
Eccentric anomaly
280.90192°
Mean motion
3.82541 °/min
Orbital period
94.11 mins
BSTAR
0.0018493
Loading maneuver chart data...
Computing Atmospheric mass density...
Loading historical data...
Loading historical data...
Loading historical data...
Loading historical data...
Loading historical data...
Loading historical data...
Loading historical data...

Documentation

Showing up to 5 results
|